Regional Weather Roundup
Issued by NWS

Home | Current Version | Previous Version | Text Only | Print | Product List | Glossary Off
Versions: 1 2 3 4 5 6 7 8 9 10 11 12 13 14 15 16 17 18 19 20 21 22 23 24 25 26 27 28 29 30 31 32 33 34 35 36 37 38 39 40 41 42 43 44 45 46 47 48 49 50

000
ASUS43 KLSX 070957
RWRMO

WEATHER SUMMARY FOR MISSOURI
NATIONAL WEATHER SERVICE SPRINGFIELD MO
400 AM CST WED DEC 07 2016

NOTE: "FAIR" INDICATES FEW OR NO CLOUDS BELOW 12,000 FEET WITH NO
       SIGNIFICANT WEATHER AND/OR OBSTRUCTIONS TO VISIBILITY.
       CURRENT SKY AND/OR WEATHER CONDITIONS ARE NOT AVAILABLE FOR
       CHILLICOTHE AND FARMINGTON.

MOZ001>031-035>038-043-044-053-054-071100-
...NORTHERN AND WESTERN MISSOURI...

CITY           SKY/WX    TMP DP  RH WIND       PRES   REMARKS
KANSAS CTY INT CLOUDY    29  13  51 N7        30.18F WCI  22
LEE`S SUMMIT   CLOUDY    32  13  45 N12       30.18F WCI  23
ST JOSEPH      CLOUDY    25  16  68 N3        30.20F
CHILLICOTHE      N/A     29  14  53 NW5       30.20F WCI  24

$$
MOZ066>068-077>081-088>096-101>105-071100-
...SOUTHWEST MISSOURI...

CITY           SKY/WX    TMP DP  RH WIND       PRES   REMARKS
SPRINGFIELD    CLEAR     27  16  63 NE7       30.14S WCI  19
JOPLIN         MOCLDY    28  20  71 E5        30.16F WCI  23

$$
MOZ032>034-039>042-045>050-055>058-069>072-071100-
...CENTRAL MISSOURI...

CITY           SKY/WX    TMP DP  RH WIND       PRES   REMARKS
COLUMBIA       NOT AVBL
JEFFERSON CITY CLOUDY    27  21  78 CALM      30.20R
ROLLA          CLOUDY    25  17  72 CALM      30.16R
SEDALIA        CLOUDY    32  16  51 N18       30.19F WCI  20
WARRENSBURG    CLOUDY    32  19  59 NW6       30.20F WCI  26

$$
MOZ051-052-059>065-071100-
...EAST CENTRAL MISSOURI...

CITY           SKY/WX    TMP DP  RH WIND       PRES   REMARKS
ST LOUIS INTL  MOCLDY    30  18  60 W6        30.17R WCI  24

$$
MOZ072>076-082>087-097>100-106>115-071100-
...SOUTH CENTRAL AND SOUTHEAST MISSOURI...

CITY           SKY/WX    TMP DP  RH WIND       PRES   REMARKS
CAPE GIRARDEAU MOCLDY    33  24  69 N7        30.17R WCI  27
POPLAR BLUFF   CLEAR     33  26  75 N6        30.18R WCI  28
WEST PLAINS    CLEAR     29  18  63 N3        30.17R

$$


USA.gov is the U.S. government's official web portal to all federal, state and local government web resources and services.